Flag for Switzerland Weather past 2 weeks in Kreuzlingen, Thurgau, Switzerland

Now
40 °F

Light rain. Overcast.


Feels Like: 34 °F
Forecast: 33 / 46 °F
Wind: 9 mph from Northwest

Location: Konstanz

Current Time: Mar 2, 2015 at 8:34:37 PM

Latest Report: Mar 2, 2015 at 8:00 PM


Visibility: 10 mi

Pressure: 30.06 "Hg

Humidity: 78%

Dew point: 34 °F

Location of KreuzlingenLocation

Historic Weather in Kreuzlingen — Graph

°F

Kreuzlingen temperature yesterday

Maximum temperature yesterday: 48 °F (at 5:00 PM)
Minimum temperature yesterday: 31 °F (at 2:00 AM)
Average temperature yesterday: 40 °F

Past Weeks' High & Low Weather Summary

 TemperatureHumidityPressure
High48 °F (Mar 1, 5:00 PM)100% (Feb 20, 4:00 AM)30.77 "Hg (Feb 20, 4:00 AM)
Low26 °F (Feb 20, 8:00 AM)40% (Feb 20, 5:00 PM)29.55 "Hg (Feb 21, 1:00 PM)
Average35 °F85%30.08 "Hg
* Reported Feb 15 7:00 PM — Mar 2 7:00 PM, Kreuzlingen, Weather by CustomWeather, © 2015

Note: Actual official high and low records may vary slightly from our data, if they occured in-between our weather recording intervals... More about our weather records

Advertising

Kreuzlingen weather history for previous 24 hours

 ConditionsComfort  
Time TempWeatherWind HumidityBarometerVisibility
7:00 PM
Mon, Mar 2
42 °FPassing clouds.7 mph75%30.00 "Hg37 mi
6:00 PM44 °FThunderstorms. Scattered clouds.7 mph62%29.96 "Hg28 mi
5:00 PM45 °FLight rain. Partly sunny.8 mph70%29.93 "Hg28 mi
4:00 PM46 °FOvercast.7 mph73%29.90 "Hg28 mi
3:00 PM45 °FPartly sunny.8 mph75%29.89 "Hg28 mi
2:00 PM44 °FOvercast.7 mph84%29.90 "Hg22 mi
1:00 PM42 °FLight rain. Low clouds.3 mph87%29.89 "Hg19 mi
12:00 PM40 °FRain. Low clouds.3 mph93%29.88 "Hg7 mi
11:00 AM40 °FLight rain. Overcast.5 mph87%29.85 "Hg9 mi
10:00 AM47 °FLight rain. Overcast.9 mph77%29.81 "Hg12 mi
9:00 AM47 °FSprinkles. Overcast.7 mph89%29.78 "Hg4 mi
8:00 AM48 °FOvercast.6 mph87%29.73 "Hg22 mi
7:00 AM48 °FLight rain. Overcast.6 mph90%29.72 "Hg14 mi
6:00 AM48 °FLight rain. Overcast.6 mph93%29.73 "Hg8 mi
5:00 AM48 °FLight rain. Overcast.7 mph91%29.72 "Hg25 mi
4:00 AM47 °FRain. Overcast.9 mph92%29.74 "Hg4 mi
3:00 AM47 °FDrizzle. Overcast.7 mph87%29.74 "Hg43 mi
2:00 AM47 °FLight rain. Overcast.5 mph94%29.77 "Hg5 mi
1:00 AM47 °FLight rain. Overcast.7 mph90%29.80 "Hg11 mi
12:00 AM48 °FDrizzle. Overcast.7 mph86%29.81 "Hg43 mi
11:00 PM
Sun, Mar 1
47 °FPassing clouds.5 mph91%29.82 "Hg28 mi
10:00 PM47 °FLight rain. Overcast.6 mph93%29.83 "Hg7 mi
9:00 PM47 °FOvercast.3 mph86%29.85 "Hg22 mi
8:00 PM47 °FLight rain. Overcast.3 mph86%29.87 "Hg22 mi
Weather by CustomWeather, © 2015

See weather overviewHow to use our weather pages